SL-16 R/B (20625 NORAD) Tracking and Keplerian Element Data

This shows tracking and keplerian element data for the satellite.

Feedback or suggestion? Click here.




ElementValue
Catalog20625
NameSL-16 R/B
Epoch Orbit45354
Epoch Day198.90794904
Epoch Year2018
RAAN38.5903
Inclination70.9989
Eccentricity0.0016078
Argument of Perigee232.0559
Mean Anonmoly127.9111
Mean Motion14.14630602
Decay Rate-3.12E-06
L11 20625U 90046B 18198.90794904 -.00000312 00000-0 -13717-3 0 9993
L22 20625 70.9989 38.5903 0016078 232.0559 127.9111 14.14630602453545

Live tracking and technical data element details for SL-16 R/B (NORAD 20625). SL-16 R/B can be tracked NOW for your location showing map with azimuth and elevation plus other details from your city location.

Track the satellite on the map from your city or location and see movement details for azimuth, elevation, latitude, longitude, range, height, and movement on the map or in text.







IsCatalogInMostPopularTable: catalog: 20625, numindb: 23
Update: records affected: 1



GetName: 20625 SL-16 R/B

Hit Count: updated at: Fri, 20 Jul 2018 20:37:55 GMT